Погода в Джугу

Бенин     9°42′20″N   1°39′58″E
темп.,
°C
ветер,
м/с
пор.,
м/с
влажн.,
%
обл.,
%
осадки,
мм/ч
давл.,
гПа
погр.,
м
10 мая, пн
пн1001:00+24ю1173100 0.0 101331
04:00+23в2479100 0.1 1012139
07:00+23юв1280100 0.1 101399
10:00+28ю3459100 0.0 1014640
13:00+30ююв234874 0.0 1012925
16:00+36в483149 0.0 10083045
19:00+30всв235336 0.0 100979
22:00+26ю227219 1.4 101339
11 мая, вт
вт1101:00+24ююз36795 1.5 1012133
04:00+23ююз398654 0.0 1011277
07:00+23ююз278968 0.0 1013263
10:00+29ююз34585 0.0 1014753
13:00+35ю23385 0.0 10121880
16:00+37юв273060 0.0 10093499
19:00+32ююз374175 0.0 1008214
22:00+26зюз4876100 4.9 1011167
12 мая, ср
ср1201:00+25зюз2377100 4.9 1012100
04:00+24ююз3980100 0.0 1010290
07:00+24ююз278599 0.0 1012289
10:00+30юз34585 0.0 1014929
13:00+35зюз32417 0.0 10111657
16:00+37з243363 0.0 10092641
19:00+26сз4776100 0.8 1009215
22:00+25зюз2775100 1.8 1012269
13 мая, чт
чт1301:00+24в2478100 2.1 1012108
04:00+24ююз51085100 0.6 1009268
07:00+23ю31091100 0.6 1010346
10:00+29юз356029 0.0 1012757
13:00+35юз334012 0.0 10101611
16:00+36ююз223517 0.0 10072504
19:00+32юз114813 0.0 100813
22:00+26сз1271100 0.9 101163
14 мая, пт
пт1401:00+26ю2577100 1.4 1010169
04:00+24ю41178100 0.0 1009360
07:00+23ю310805 0.0 1010385
10:00+30юз45513 0.0 1011710
13:00+35юз33375 0.0 10091747
16:00+37ю333135 0.0 10062713
19:00+32ю374144 0.0 1006155
22:00+29ююз265284 0.0 1009224